This is the latest recevied weather packets stored in our database for station/object AC1IX. If no packets are shown the sender has not sent any weather packets the latest 10 day(s).
| Time | Temp. | Humidity | Pressure | Rain* | Wind** | Luminosity | Snow |
|---|---|---|---|---|---|---|---|
| 1777946679 | 14.44° C | 55% | 1009.3 hPa | 0 mm | - | 0 W/m² | - |
| 1777946377 | 14.44° C | 57% | 1009.3 hPa | 0 mm | - | 0 W/m² | - |
| 1777946074 | 14.44° C | 56% | 1009.2 hPa | 0 mm | - | 0 W/m² | - |
| 1777945771 | 13.89° C | 57% | 1009.3 hPa | 0 mm | - | 0 W/m² | - |
| 1777945468 | 13.89° C | 57% | 1009.1 hPa | 0 mm | - | 0 W/m² | - |
| 1777945165 | 13.89° C | 57% | 1009.2 hPa | 0 mm | - | 0 W/m² | - |
| 1777944862 | 13.89° C | 58% | 1009 hPa | 0 mm | - | 0 W/m² | - |
| 1777944560 | 13.33° C | 59% | 1008.9 hPa | 0 mm | - | 0 W/m² | - |
| 1777944258 | 13.33° C | 59% | 1009 hPa | 0 mm | - | 0 W/m² | - |
| 1777943954 | 13.33° C | 59% | 1008.9 hPa | 0 mm | - | 0 W/m² | - |
| 1777943650 | 12.78° C | 60% | 1009 hPa | 0 mm | - | 0 W/m² | - |
| 1777943347 | 12.78° C | 60% | 1009.2 hPa | 0 mm | - | 0 W/m² | - |
| 1777943043 | 12.78° C | 61% | 1009 hPa | 0 mm | - | 0 W/m² | - |
| 1777942739 | 12.78° C | 60% | 1008.9 hPa | 0 mm | - | 0 W/m² | - |
| 1777942435 | 12.78° C | 59% | 1008.9 hPa | 0 mm | - | 0 W/m² | - |
| 1777942133 | 12.78° C | 60% | 1008.7 hPa | 0 mm | - | 0 W/m² | - |
| 1777941829 | 13.33° C | 59% | 1008.7 hPa | 0 mm | - | 0 W/m² | - |
| 1777941527 | 13.33° C | 60% | 1008.8 hPa | 0 mm | - | 0 W/m² | - |
| 1777941224 | 13.89° C | 58% | 1008.7 hPa | 0 mm | - | 0 W/m² | - |
| 1777940920 | 13.89° C | 57% | 1008.7 hPa | 0 mm | - | 0 W/m² | - |
| 1777940617 | 13.89° C | 56% | 1008.6 hPa | 0 mm | - | 0 W/m² | - |
| 1777940315 | 14.44° C | 56% | 1008.3 hPa | 0 mm | - | 0 W/m² | - |
| 1777940012 | 14.44° C | 54% | 1008.4 hPa | 0 mm | - | 0 W/m² | - |
| 1777939709 | 14.44° C | 56% | 1008.2 hPa | 0 mm | - | 0 W/m² | - |
| 1777939407 | 14.44° C | 56% | 1008.3 hPa | 0 mm | - | 0 W/m² | - |
* Rain latest hour (hover to see other rain measurements)
** Current wind speed in m/s (hover to see current wind gust speed)